GPS BIIR-6 (PRN 14)

Last updated on Aug. 13, 2020, 5:30 a.m. UTC

1 26605U 00071A   20225.72494723  .00000039  00000-0  00000-0 0  9998
2 26605  55.0360 179.2343 0117847 251.0215 287.8698  2.00562846144733
UTC
Height (km)
Latitude
Longitude
Inclination
Orbital Period
UTC large
Height (km)
Speed (km/s)
/
Latitude / Longitude
Inclination (degrees)
Orbital Period (minutes)
Azimuth
Elevation
Range (km)
Doppler Factor
iOS Compass Heading
iOS Angle

Next 30 passes for location: Hong Kong

Rise time Rise Azimuth (degrees) Set time Set Azimuth (degrees) Duration Max altitude (degrees)

No matching passes for this satellites